| time (UTC) | temp F | wind direction | speed MPH | gust MPH | rain 1hr in | rain 24hr in | rain mn in | humidity % | barometer mb |
| 20260903121631 | 79 | 288 | 7.0 | 13.0 | 0.00 | 0.00 | 0.00 | 42 | 1020.5 |
| 20260903121131 | 79 | 272 | 6.0 | 13.0 | 0.00 | 0.00 | 0.00 | 42 | 1020.5 |
| 20260903120630 | 79 | 311 | 5.0 | 12.0 | 0.00 | 0.00 | 0.00 | 44 | 1020.6 |
| 20260903120131 | 78 | 279 | 6.0 | 13.0 | 0.00 | 0.00 | 0.00 | 42 | 1020.7 |
| 20260903115633 | 78 | 346 | 5.0 | 13.0 | 0.00 | 0.00 | 0.00 | 42 | 1020.8 |
| 20260903115129 | 78 | 301 | 5.0 | 13.0 | 0.00 | 0.00 | 0.00 | 45 | 1020.8 |
| 20260903114632 | 78 | 269 | 6.0 | 13.0 | 0.00 | 0.00 | 0.00 | 43 | 1020.7 |
| 20260903114131 | 78 | 272 | 6.0 | 13.0 | 0.00 | 0.00 | 0.00 | 45 | 1020.8 |
| 20260903113630 | 78 | 272 | 6.0 | 16.0 | 0.00 | 0.00 | 0.00 | 43 | 1020.8 |
| 20260903113132 | 78 | 290 | 6.0 | 16.0 | 0.00 | 0.00 | 0.00 | 43 | 1020.8 |
| 20260903112630 | 78 | 225 | 5.0 | 16.0 | 0.00 | 0.00 | 0.00 | 43 | 1020.8 |
| 20260903112133 | 78 | 240 | 5.0 | 12.0 | 0.00 | 0.00 | 0.00 | 44 | 1020.8 |
| 20260903111632 | 77 | 227 | 5.0 | 12.0 | 0.00 | 0.00 | 0.00 | 44 | 1020.9 |
| 20260903111130 | 77 | 306 | 5.0 | 12.0 | 0.00 | 0.00 | 0.00 | 44 | 1021.0 |
| 20260903110631 | 76 | 270 | 7.0 | 15.0 | 0.00 | 0.00 | 0.00 | 46 | 1021.0 |
| 20260903110130 | 76 | 292 | 8.0 | 15.0 | 0.00 | 0.00 | 0.00 | 46 | 1021.1 |
| 20260903105630 | 76 | 323 | 7.0 | 13.0 | 0.00 | 0.00 | 0.00 | 45 | 1021.2 |
| 20260903105130 | 76 | 250 | 8.0 | 16.0 | 0.00 | 0.00 | 0.00 | 45 | 1021.2 |
| 20260903104630 | 75 | 311 | 8.0 | 16.0 | 0.00 | 0.00 | 0.00 | 46 | 1021.2 |
| 20260903104130 | 75 | 327 | 8.0 | 13.0 | 0.00 | 0.00 | 0.00 | 47 | 1021.3 |
| 20260903103630 | 74 | 332 | 8.0 | 13.0 | 0.00 | 0.00 | 0.00 | 47 | 1021.4 |
| 20260903103131 | 75 | 340 | 8.0 | 17.0 | 0.00 | 0.00 | 0.00 | 45 | 1021.3 |
| 20260903102629 | 75 | 341 | 8.0 | 17.0 | 0.00 | 0.00 | 0.00 | 46 | 1021.4 |
| 20260903102128 | 75 | 317 | 7.0 | 15.0 | 0.00 | 0.00 | 0.00 | 46 | 1021.4 |
| 20260903101623 | 75 | 315 | 7.0 | 15.0 | 0.00 | 0.00 | 0.00 | 45 | 1021.3 |
| 20260903101121 | 75 | 298 | 7.0 | 13.0 | 0.00 | 0.00 | 0.00 | 47 | 1021.3 |
| 20260903100621 | 75 | 296 | 7.0 | 13.0 | 0.00 | 0.00 | 0.00 | 45 | 1021.3 |
| 20260903100119 | 75 | 317 | 7.0 | 17.0 | 0.00 | 0.00 | 0.00 | 46 | 1021.3 |
| 20260903095620 | 75 | 286 | 8.0 | 17.0 | 0.00 | 0.00 | 0.00 | 47 | 1021.3 |
| 20260903095121 | 75 | 312 | 6.0 | 14.0 | 0.00 | 0.00 | 0.00 | 46 | 1021.3 |
| 20260903094618 | 75 | 328 | 6.0 | 16.0 | 0.00 | 0.00 | 0.00 | 47 | 1021.4 |
| 20260903094118 | 74 | 304 | 8.0 | 16.0 | 0.00 | 0.00 | 0.00 | 47 | 1021.5 |
| 20260903093619 | 74 | 336 | 8.0 | 15.0 | 0.00 | 0.00 | 0.00 | 47 | 1021.6 |
| 20260903093118 | 75 | 311 | 6.0 | 13.0 | 0.00 | 0.00 | 0.00 | 47 | 1021.7 |
| 20260903092621 | 75 | 285 | 6.0 | 15.0 | 0.00 | 0.00 | 0.00 | 48 | 1021.7 |
| 20260903092119 | 74 | 264 | 8.0 | 15.0 | 0.00 | 0.00 | 0.00 | 47 | 1021.7 |
| 20260903091618 | 74 | 277 | 9.0 | 17.0 | 0.00 | 0.00 | 0.00 | 48 | 1021.8 |
| 20260903091118 | 74 | 316 | 8.0 | 17.0 | 0.00 | 0.00 | 0.00 | 48 | 1021.8 |
| 20260903090618 | 74 | 333 | 7.0 | 14.0 | 0.00 | 0.00 | 0.00 | 48 | 1022.0 |
| 20260903090120 | 74 | 279 | 7.0 | 14.0 | 0.00 | 0.00 | 0.00 | 50 | 1021.8 |
| 20260903085616 | 74 | 300 | 6.0 | 14.0 | 0.00 | 0.00 | 0.00 | 48 | 1022.0 |
| 20260903085119 | 73 | 268 | 6.0 | 14.0 | 0.00 | 0.00 | 0.00 | 52 | 1022.0 |
| 20260903084617 | 73 | 307 | 7.0 | 14.0 | 0.00 | 0.00 | 0.00 | 50 | 1022.0 |
| 20260903084116 | 73 | 246 | 7.0 | 14.0 | 0.00 | 0.00 | 0.00 | 52 | 1022.0 |
| 20260903083616 | 72 | 314 | 6.0 | 12.0 | 0.00 | 0.00 | 0.00 | 54 | 1022.1 |
| 20260903083117 | 72 | 296 | 6.0 | 12.0 | 0.00 | 0.00 | 0.00 | 55 | 1022.1 |
| 20260903082616 | 71 | 307 | 7.0 | 14.0 | 0.00 | 0.00 | 0.00 | 55 | 1022.1 |
| 20260903082118 | 71 | 311 | 9.0 | 14.0 | 0.00 | 0.00 | 0.00 | 55 | 1022.2 |
| 20260903081614 | 70 | 324 | 9.0 | 16.0 | 0.00 | 0.00 | 0.00 | 56 | 1022.1 |
| 20260903081113 | 70 | 321 | 7.0 | 16.0 | 0.00 | 0.00 | 0.00 | 55 | 1022.0 |
| 20260903080612 | 70 | 324 | 6.0 | 14.0 | 0.00 | 0.00 | 0.00 | 57 | 1022.0 |
| 20260903080112 | 69 | 310 | 7.0 | 14.0 | 0.00 | 0.00 | 0.00 | 57 | 1022.1 |
| 20260903075612 | 69 | 301 | 7.0 | 13.0 | 0.00 | 0.00 | 0.00 | 58 | 1022.1 |
| 20260903075113 | 69 | 303 | 6.0 | 13.0 | 0.00 | 0.00 | 0.00 | 60 | 1022.1 |
| 20260903074610 | 68 | 298 | 6.0 | 13.0 | 0.00 | 0.00 | 0.00 | 60 | 1022.1 |
| 20260903074111 | 68 | 328 | 5.0 | 10.0 | 0.00 | 0.00 | 0.00 | 63 | 1022.1 |
| 20260903073611 | 67 | 311 | 5.0 | 13.0 | 0.00 | 0.00 | 0.00 | 65 | 1022.0 |
| 20260903073109 | 67 | 306 | 5.0 | 13.0 | 0.00 | 0.00 | 0.00 | 64 | 1022.1 |
| 20260903072609 | 66 | 303 | 5.0 | 9.0 | 0.00 | 0.00 | 0.00 | 66 | 1022.1 |
| 20260903072108 | 66 | 282 | 5.0 | 10.0 | 0.00 | 0.00 | 0.00 | 68 | 1022.1 |
| 20260903071609 | 65 | 296 | 5.0 | 10.0 | 0.00 | 0.00 | 0.00 | 70 | 1022.2 |
| 20260903071108 | 64 | 319 | 4.0 | 9.0 | 0.00 | 0.00 | 0.00 | 72 | 1022.1 |
| 20260903070609 | 63 | 304 | 3.0 | 7.0 | 0.00 | 0.00 | 0.00 | 75 | 1022.0 |
| 20260903070108 | 62 | 310 | 3.0 | 7.0 | 0.00 | 0.00 | 0.00 | 77 | 1022.0 |
| 20260903065609 | 61 | 298 | 2.0 | 6.0 | 0.00 | 0.00 | 0.00 | 78 | 1022.0 |
| 20260903065107 | 60 | 290 | 2.0 | 6.0 | 0.00 | 0.00 | 0.00 | 79 | 1022.0 |
| 20260903064607 | 60 | 279 | 2.0 | 5.0 | 0.00 | 0.00 | 0.00 | 81 | 1022.0 |
| 20260903064106 | 59 | 297 | 0.0 | 4.0 | 0.00 | 0.00 | 0.00 | 83 | 1022.0 |
| 20260903063606 | 58 | 337 | 0.0 | 0.0 | 0.00 | 0.00 | 0.00 | 84 | 1022.0 |
| 20260903063104 | 58 | 337 | 0.0 | 0.0 | 0.00 | 0.00 | 0.00 | 85 | 1022.0 |
| 20260903062603 | 57 | 337 | 0.0 | 0.0 | 0.00 | 0.00 | 0.00 | 86 | 1021.8 |
| 20260903062058 | 57 | 337 | 0.0 | 0.0 | 0.00 | 0.00 | 0.00 | 86 | 1021.8 |
| 20260903061555 | 56 | 337 | 0.0 | 0.0 | 0.00 | 0.00 | 0.00 | 86 | 1021.8 |
| 20260903061049 | 56 | 337 | 0.0 | 0.0 | 0.00 | 0.00 | 0.00 | 87 | 1021.8 |
| 20260903060541 | 56 | 337 | 0.0 | 0.0 | 0.00 | 0.00 | 0.00 | 87 | 1021.8 |
| 20260903060032 | 56 | 337 | 0.0 | 0.0 | 0.00 | 0.00 | 0.00 | 87 | 1022.0 |
| 20260903055527 | 56 | 337 | 0.0 | 0.0 | 0.00 | 0.00 | 0.00 | 87 | 1022.0 |
| 20260903055025 | 55 | 337 | 0.0 | 0.0 | 0.00 | 0.00 | 0.00 | 87 | 1022.0 |
| 20260903054525 | 55 | 338 | 0.0 | 0.0 | 0.00 | 0.00 | 0.00 | 86 | 1021.8 |
| 20260903054025 | 55 | 338 | 0.0 | 0.0 | 0.00 | 0.00 | 0.00 | 86 | 1021.7 |
| 20260903053524 | 55 | 338 | 0.0 | 0.0 | 0.00 | 0.00 | 0.00 | 86 | 1021.7 |
| 20260903053027 | 55 | 338 | 0.0 | 0.0 | 0.00 | 0.00 | 0.00 | 86 | 1021.7 |
| 20260903052521 | 55 | 338 | 0.0 | 0.0 | 0.00 | 0.00 | 0.00 | 86 | 1021.7 |
| 20260903052022 | 55 | 338 | 0.0 | 0.0 | 0.00 | 0.00 | 0.00 | 86 | 1021.6 |
| 20260903051521 | 55 | 338 | 0.0 | 0.0 | 0.00 | 0.00 | 0.00 | 86 | 1021.7 |
| 20260903051020 | 55 | 338 | 0.0 | 0.0 | 0.00 | 0.00 | 0.00 | 86 | 1021.7 |
| 20260903050518 | 55 | 338 | 0.0 | 0.0 | 0.00 | 0.00 | 0.00 | 86 | 1021.5 |
| 20260903050020 | 55 | 338 | 0.0 | 0.0 | 0.00 | 0.00 | 0.00 | 87 | 1021.5 |
| 20260903045520 | 55 | 338 | 0.0 | 0.0 | 0.00 | 0.00 | 0.00 | 87 | 1021.5 |
| 20260903045015 | 55 | 338 | 0.0 | 0.0 | 0.00 | 0.00 | 0.00 | 87 | 1021.5 |
| 20260903044516 | 55 | 338 | 0.0 | 0.0 | 0.00 | 0.00 | 0.00 | 87 | 1021.4 |
| 20260903044017 | 55 | 338 | 0.0 | 0.0 | 0.00 | 0.00 | 0.00 | 87 | 1021.4 |
| 20260903043516 | 55 | 338 | 0.0 | 0.0 | 0.00 | 0.00 | 0.00 | 88 | 1021.3 |
| 20260903043015 | 55 | 338 | 0.0 | 0.0 | 0.00 | 0.00 | 0.00 | 88 | 1021.3 |
| 20260903042516 | 55 | 338 | 0.0 | 0.0 | 0.00 | 0.00 | 0.00 | 88 | 1021.3 |
| 20260903042013 | 55 | 338 | 0.0 | 0.0 | 0.00 | 0.00 | 0.00 | 88 | 1021.3 |
| 20260903041512 | 55 | 338 | 0.0 | 0.0 | 0.00 | 0.00 | 0.00 | 88 | 1021.3 |
| 20260903041015 | 55 | 338 | 0.0 | 0.0 | 0.00 | 0.00 | 0.00 | 89 | 1021.3 |
| 20260903040511 | 55 | 338 | 0.0 | 0.0 | 0.00 | 0.00 | 0.00 | 89 | 1021.2 |
| 20260903040009 | 55 | 338 | 0.0 | 0.0 | 0.00 | 0.00 | 0.00 | 88 | 1021.3 |
| 20260903035508 | 55 | 338 | 0.0 | 0.0 | 0.00 | 0.00 | 0.00 | 88 | 1021.2 |
| 20260903035012 | 55 | 338 | 0.0 | 0.0 | 0.00 | 0.00 | 0.00 | 88 | 1021.2 |
| 20260903034508 | 55 | 338 | 0.0 | 0.0 | 0.00 | 0.00 | 0.00 | 88 | 1021.2 |
| 20260903034009 | 55 | 338 | 0.0 | 0.0 | 0.00 | 0.00 | 0.00 | 88 | 1021.2 |
| 20260903033506 | 55 | 338 | 0.0 | 0.0 | 0.00 | 0.00 | 0.00 | 88 | 1021.2 |
| 20260903033005 | 55 | 338 | 0.0 | 0.0 | 0.00 | 0.00 | 0.00 | 88 | 1021.2 |
| 20260903032507 | 55 | 338 | 0.0 | 0.0 | 0.00 | 0.00 | 0.00 | 89 | 1021.2 |
| 20260903032005 | 55 | 338 | 0.0 | 0.0 | 0.00 | 0.00 | 0.00 | 89 | 1021.3 |
| 20260903031503 | 55 | 338 | 0.0 | 0.0 | 0.00 | 0.00 | 0.00 | 88 | 1021.3 |
| 20260903030954 | 54 | 338 | 0.0 | 0.0 | 0.00 | 0.00 | 0.00 | 88 | 1021.3 |
| 20260903030453 | 54 | 338 | 0.0 | 0.0 | 0.00 | 0.00 | 0.00 | 88 | 1021.3 |
| 20260903025954 | 54 | 338 | 0.0 | 0.0 | 0.00 | 0.00 | 0.00 | 88 | 1021.2 |
| 20260903025453 | 54 | 338 | 0.0 | 0.0 | 0.00 | 0.00 | 0.00 | 88 | 1021.2 |
| 20260903024948 | 54 | 338 | 0.0 | 0.0 | 0.00 | 0.00 | 0.00 | 88 | 1021.2 |
| 20260903024448 | 54 | 338 | 0.0 | 0.0 | 0.00 | 0.00 | 0.00 | 88 | 1021.3 |
| 20260903023949 | 54 | 338 | 0.0 | 0.0 | 0.00 | 0.00 | 0.00 | 88 | 1021.2 |
| 20260903023447 | 54 | 338 | 0.0 | 0.0 | 0.00 | 0.00 | 0.00 | 88 | 1021.2 |
| 20260903022942 | 54 | 338 | 0.0 | 0.0 | 0.00 | 0.00 | 0.00 | 88 | 1021.3 |
| 20260903022441 | 54 | 338 | 0.0 | 0.0 | 0.00 | 0.00 | 0.00 | 88 | 1021.3 |
| 20260903021938 | 54 | 338 | 0.0 | 0.0 | 0.00 | 0.00 | 0.00 | 88 | 1021.3 |
| 20260903021436 | 54 | 338 | 0.0 | 0.0 | 0.00 | 0.00 | 0.00 | 88 | 1021.3 |
| 20260903020937 | 54 | 338 | 0.0 | 0.0 | 0.00 | 0.00 | 0.00 | 88 | 1021.4 |
| 20260903020437 | 54 | 338 | 0.0 | 0.0 | 0.00 | 0.00 | 0.00 | 88 | 1021.3 |
| 20260903015937 | 54 | 338 | 0.0 | 0.0 | 0.00 | 0.00 | 0.00 | 88 | 1021.3 |
| 20260903015434 | 54 | 338 | 0.0 | 0.0 | 0.00 | 0.00 | 0.00 | 88 | 1021.3 |
| 20260903014932 | 54 | 338 | 0.0 | 0.0 | 0.00 | 0.00 | 0.00 | 88 | 1021.4 |
| 20260903014433 | 53 | 338 | 0.0 | 0.0 | 0.00 | 0.00 | 0.00 | 88 | 1021.4 |
| 20260903013934 | 53 | 338 | 0.0 | 0.0 | 0.00 | 0.00 | 0.00 | 88 | 1021.4 |
| 20260903013434 | 53 | 338 | 0.0 | 0.0 | 0.00 | 0.00 | 0.00 | 88 | 1021.5 |
| 20260903012929 | 53 | 338 | 0.0 | 0.0 | 0.00 | 0.00 | 0.00 | 88 | 1021.5 |
| 20260903012430 | 53 | 338 | 0.0 | 0.0 | 0.00 | 0.00 | 0.00 | 88 | 1021.5 |
| 20260903011930 | 53 | 338 | 0.0 | 0.0 | 0.00 | 0.00 | 0.00 | 87 | 1021.4 |
| 20260903011434 | 53 | 338 | 0.0 | 0.0 | 0.00 | 0.00 | 0.00 | 87 | 1021.4 |
| 20260903010929 | 53 | 338 | 0.0 | 0.0 | 0.00 | 0.00 | 0.00 | 88 | 1021.5 |
| 20260903010434 | 53 | 338 | 0.0 | 0.0 | 0.00 | 0.00 | 0.00 | 88 | 1021.5 |
| 20260903005929 | 53 | 338 | 0.0 | 0.0 | 0.00 | 0.00 | 0.00 | 88 | 1021.4 |
| 20260903005430 | 53 | 338 | 0.0 | 0.0 | 0.00 | 0.00 | 0.00 | 87 | 1021.5 |
| 20260903004929 | 53 | 338 | 0.0 | 0.0 | 0.00 | 0.00 | 0.00 | 87 | 1021.5 |
| 20260903004430 | 53 | 338 | 0.0 | 0.0 | 0.00 | 0.00 | 0.00 | 87 | 1021.5 |
| 20260903003929 | 53 | 338 | 0.0 | 0.0 | 0.00 | 0.00 | 0.00 | 88 | 1021.4 |
| 20260903003430 | 53 | 338 | 0.0 | 0.0 | 0.00 | 0.00 | 0.00 | 88 | 1021.3 |
| 20260903002929 | 53 | 338 | 0.0 | 0.0 | 0.00 | 0.00 | 0.00 | 87 | 1021.3 |
| 20260903002428 | 53 | 338 | 0.0 | 0.0 | 0.00 | 0.00 | 0.00 | 86 | 1021.3 |
| 20260903001929 | 53 | 338 | 0.0 | 0.0 | 0.00 | 0.00 | 0.00 | 85 | 1021.3 |
| 20260903001431 | 53 | 338 | 0.0 | 0.0 | 0.00 | 0.00 | 0.00 | 85 | 1021.3 |
| 20260903000931 | 53 | 338 | 0.0 | 0.0 | 0.00 | 0.00 | 0.00 | 85 | 1021.3 |
| 20260903000450 | 53 | 338 | 0.0 | 0.0 | 0.00 | 0.00 | 0.00 | 85 | 1021.3 |
| 20260902235927 | 53 | 338 | 0.0 | 0.0 | 0.00 | 0.00 | 0.00 | 85 | 1021.3 |
| 20260902235426 | 53 | 338 | 0.0 | 0.0 | 0.00 | 0.00 | 0.00 | 85 | 1021.3 |
| 20260902234927 | 53 | 338 | 0.0 | 0.0 | 0.00 | 0.00 | 0.00 | 85 | 1021.3 |
| 20260902234426 | 53 | 338 | 0.0 | 0.0 | 0.00 | 0.00 | 0.00 | 84 | 1021.3 |
| 20260902233924 | 53 | 338 | 0.0 | 0.0 | 0.00 | 0.00 | 0.00 | 84 | 1021.4 |
| 20260902233420 | 53 | 338 | 0.0 | 0.0 | 0.00 | 0.00 | 0.00 | 84 | 1021.4 |
| 20260902232921 | 53 | 338 | 0.0 | 0.0 | 0.00 | 0.00 | 0.00 | 84 | 1021.5 |
| 20260902232422 | 53 | 338 | 0.0 | 0.0 | 0.00 | 0.00 | 0.00 | 84 | 1021.5 |
| 20260902231918 | 54 | 338 | 0.0 | 0.0 | 0.00 | 0.00 | 0.00 | 82 | 1021.5 |
| 20260902231415 | 54 | 338 | 0.0 | 0.0 | 0.00 | 0.00 | 0.00 | 82 | 1021.6 |
| 20260902230914 | 54 | 338 | 0.0 | 0.0 | 0.00 | 0.00 | 0.00 | 82 | 1021.5 |
| 20260902230413 | 54 | 338 | 0.0 | 0.0 | 0.00 | 0.00 | 0.00 | 82 | 1021.5 |
| 20260902225910 | 54 | 338 | 0.0 | 0.0 | 0.00 | 0.00 | 0.00 | 82 | 1021.6 |
| 20260902225408 | 55 | 338 | 0.0 | 0.0 | 0.00 | 0.00 | 0.00 | 81 | 1021.5 |
| 20260902224908 | 55 | 338 | 0.0 | 0.0 | 0.00 | 0.00 | 0.00 | 80 | 1021.5 |
| 20260902224408 | 55 | 338 | 0.0 | 0.0 | 0.00 | 0.00 | 0.00 | 80 | 1021.5 |
| 20260902223908 | 55 | 338 | 0.0 | 0.0 | 0.00 | 0.00 | 0.00 | 80 | 1021.5 |
| 20260902223407 | 56 | 338 | 0.0 | 0.0 | 0.00 | 0.00 | 0.00 | 80 | 1021.5 |
| 20260902222906 | 56 | 338 | 0.0 | 0.0 | 0.00 | 0.00 | 0.00 | 79 | 1021.6 |
| 20260902222404 | 56 | 338 | 0.0 | 0.0 | 0.00 | 0.00 | 0.00 | 79 | 1021.6 |
| 20260902221902 | 56 | 338 | 0.0 | 0.0 | 0.00 | 0.00 | 0.00 | 79 | 1021.5 |
| 20260902221402 | 56 | 338 | 0.0 | 0.0 | 0.00 | 0.00 | 0.00 | 79 | 1021.4 |
| 20260902220904 | 57 | 338 | 0.0 | 0.0 | 0.00 | 0.00 | 0.00 | 78 | 1021.6 |
| 20260902220404 | 57 | 338 | 0.0 | 0.0 | 0.00 | 0.00 | 0.00 | 77 | 1021.5 |
| 20260902215859 | 57 | 338 | 0.0 | 0.0 | 0.00 | 0.00 | 0.00 | 77 | 1021.5 |
| 20260902215401 | 57 | 338 | 0.0 | 0.0 | 0.00 | 0.00 | 0.00 | 78 | 1021.5 |
| 20260902214903 | 58 | 338 | 0.0 | 0.0 | 0.00 | 0.00 | 0.00 | 77 | 1021.5 |
| 20260902214355 | 58 | 338 | 0.0 | 0.0 | 0.00 | 0.00 | 0.00 | 77 | 1021.5 |
| 20260902213853 | 58 | 338 | 0.0 | 0.0 | 0.00 | 0.00 | 0.00 | 78 | 1021.5 |
| 20260902213353 | 59 | 338 | 0.0 | 0.0 | 0.00 | 0.00 | 0.00 | 77 | 1021.4 |
| 20260902212851 | 59 | 338 | 0.0 | 0.0 | 0.00 | 0.00 | 0.00 | 77 | 1021.4 |
| 20260902212351 | 59 | 338 | 0.0 | 0.0 | 0.00 | 0.00 | 0.00 | 76 | 1021.5 |
| 20260902211900 | 59 | 338 | 0.0 | 0.0 | 0.00 | 0.00 | 0.00 | 75 | 1021.5 |
| 20260902211350 | 60 | 338 | 0.0 | 0.0 | 0.00 | 0.00 | 0.00 | 75 | 1021.4 |
| 20260902210846 | 60 | 338 | 0.0 | 0.0 | 0.00 | 0.00 | 0.00 | 75 | 1021.4 |
| 20260902210345 | 60 | 338 | 0.0 | 0.0 | 0.00 | 0.00 | 0.00 | 75 | 1021.3 |
| 20260902205843 | 60 | 338 | 0.0 | 0.0 | 0.00 | 0.00 | 0.00 | 75 | 1021.3 |
| 20260902205340 | 60 | 338 | 0.0 | 0.0 | 0.00 | 0.00 | 0.00 | 74 | 1021.2 |
| 20260902204838 | 61 | 338 | 0.0 | 0.0 | 0.00 | 0.00 | 0.00 | 73 | 1021.3 |
| 20260902204336 | 61 | 338 | 0.0 | 0.0 | 0.00 | 0.00 | 0.00 | 74 | 1021.3 |
| 20260902203836 | 61 | 338 | 0.0 | 0.0 | 0.00 | 0.00 | 0.00 | 72 | 1021.2 |
| 20260902203332 | 61 | 338 | 0.0 | 0.0 | 0.00 | 0.00 | 0.00 | 72 | 1021.2 |
| 20260902202829 | 61 | 338 | 0.0 | 0.0 | 0.00 | 0.00 | 0.00 | 71 | 1021.2 |
| 20260902202331 | 62 | 338 | 0.0 | 0.0 | 0.00 | 0.00 | 0.00 | 71 | 1021.2 |
| 20260902201830 | 62 | 338 | 0.0 | 0.0 | 0.00 | 0.00 | 0.00 | 70 | 1021.2 |
| 20260902201331 | 62 | 338 | 0.0 | 0.0 | 0.00 | 0.00 | 0.00 | 69 | 1021.3 |
| 20260902200831 | 62 | 338 | 0.0 | 0.0 | 0.00 | 0.00 | 0.00 | 69 | 1021.3 |
| 20260902200331 | 62 | 338 | 0.0 | 0.0 | 0.00 | 0.00 | 0.00 | 69 | 1021.2 |
| 20260902195832 | 62 | 338 | 0.0 | 0.0 | 0.00 | 0.00 | 0.00 | 68 | 1021.2 |
| 20260902195329 | 62 | 338 | 0.0 | 0.0 | 0.00 | 0.00 | 0.00 | 68 | 1021.2 |
| 20260902194830 | 63 | 338 | 0.0 | 0.0 | 0.00 | 0.00 | 0.00 | 67 | 1021.1 |
| 20260902194331 | 63 | 338 | 0.0 | 0.0 | 0.00 | 0.00 | 0.00 | 67 | 1021.2 |
| 20260902193831 | 63 | 338 | 0.0 | 0.0 | 0.00 | 0.00 | 0.00 | 67 | 1021.2 |
| 20260902193328 | 63 | 338 | 0.0 | 0.0 | 0.00 | 0.00 | 0.00 | 66 | 1021.2 |
| 20260902192827 | 63 | 338 | 0.0 | 0.0 | 0.00 | 0.00 | 0.00 | 66 | 1021.2 |
| 20260902192326 | 64 | 338 | 0.0 | 0.0 | 0.00 | 0.00 | 0.00 | 66 | 1021.2 |
| 20260902191824 | 64 | 338 | 0.0 | 0.0 | 0.00 | 0.00 | 0.00 | 66 | 1021.1 |
| 20260902191323 | 64 | 338 | 0.0 | 0.0 | 0.00 | 0.00 | 0.00 | 65 | 1021.1 |
| 20260902190822 | 64 | 338 | 0.0 | 0.0 | 0.00 | 0.00 | 0.00 | 65 | 1021.1 |
| 20260902190321 | 64 | 338 | 0.0 | 0.0 | 0.00 | 0.00 | 0.00 | 64 | 1021.1 |
| 20260902185820 | 65 | 338 | 0.0 | 1.0 | 0.00 | 0.00 | 0.00 | 63 | 1021.1 |
| 20260902185321 | 65 | 338 | 1.0 | 2.0 | 0.00 | 0.00 | 0.00 | 63 | 1021.0 |
| 20260902184818 | 65 | 338 | 1.0 | 2.0 | 0.00 | 0.00 | 0.00 | 63 | 1021.0 |
| 20260902184319 | 65 | 338 | 1.0 | 2.0 | 0.00 | 0.00 | 0.00 | 63 | 1020.9 |
| 20260902183816 | 66 | 338 | 0.0 | 1.0 | 0.00 | 0.00 | 0.00 | 62 | 1020.9 |
| 20260902183308 | 66 | 338 | 0.0 | 1.0 | 0.00 | 0.00 | 0.00 | 62 | 1020.9 |
| 20260902182806 | 67 | 338 | 0.0 | 0.0 | 0.00 | 0.00 | 0.00 | 63 | 1020.9 |
| 20260902182306 | 67 | 338 | 0.0 | 1.0 | 0.00 | 0.00 | 0.00 | 64 | 1020.9 |
| 20260902181804 | 67 | 338 | 0.0 | 1.0 | 0.00 | 0.00 | 0.00 | 65 | 1020.8 |
| 20260902181304 | 67 | 338 | 0.0 | 1.0 | 0.00 | 0.00 | 0.00 | 63 | 1020.7 |
| 20260902180802 | 68 | 338 | 0.0 | 1.0 | 0.00 | 0.00 | 0.00 | 61 | 1020.7 |
| 20260902180302 | 68 | 338 | 0.0 | 2.0 | 0.00 | 0.00 | 0.00 | 61 | 1020.7 |
| 20260902175801 | 69 | 338 | 1.0 | 3.0 | 0.00 | 0.00 | 0.00 | 60 | 1020.6 |
| 20260902175301 | 69 | 338 | 2.0 | 3.0 | 0.00 | 0.00 | 0.00 | 58 | 1020.5 |
| 20260902174800 | 69 | 338 | 3.0 | 3.0 | 0.00 | 0.00 | 0.00 | 54 | 1020.5 |
| 20260902174304 | 70 | 338 | 3.0 | 5.0 | 0.00 | 0.00 | 0.00 | 54 | 1020.5 |
| 20260902173802 | 70 | 338 | 3.0 | 5.0 | 0.00 | 0.00 | 0.00 | 54 | 1020.5 |
| 20260902173301 | 70 | 337 | 3.0 | 4.0 | 0.00 | 0.00 | 0.00 | 53 | 1020.5 |
| 20260902172802 | 70 | 336 | 3.0 | 4.0 | 0.00 | 0.00 | 0.00 | 53 | 1020.4 |
| 20260902172300 | 71 | 335 | 3.0 | 6.0 | 0.00 | 0.00 | 0.00 | 53 | 1020.4 |
| 20260902171802 | 71 | 331 | 4.0 | 6.0 | 0.00 | 0.00 | 0.00 | 52 | 1020.4 |
| 20260902171301 | 71 | 332 | 4.0 | 6.0 | 0.00 | 0.00 | 0.00 | 50 | 1020.3 |
| 20260902170758 | 72 | 339 | 3.0 | 6.0 | 0.00 | 0.00 | 0.00 | 51 | 1020.3 |
| 20260902170256 | 72 | 331 | 2.0 | 4.0 | 0.00 | 0.00 | 0.00 | 51 | 1020.3 |
| 20260902165757 | 73 | 306 | 2.0 | 3.0 | 0.00 | 0.00 | 0.00 | 49 | 1020.2 |
| 20260902165255 | 73 | 306 | 2.0 | 3.0 | 0.00 | 0.00 | 0.00 | 48 | 1020.3 |
| 20260902164753 | 73 | 304 | 1.0 | 3.0 | 0.00 | 0.00 | 0.00 | 48 | 1020.3 |
| 20260902164251 | 74 | 304 | 1.0 | 4.0 | 0.00 | 0.00 | 0.00 | 47 | 1020.2 |
| 20260902163749 | 74 | 304 | 2.0 | 4.0 | 0.00 | 0.00 | 0.00 | 47 | 1020.2 |
| 20260902163248 | 74 | 298 | 2.0 | 6.0 | 0.00 | 0.00 | 0.00 | 47 | 1020.2 |
| 20260902162749 | 75 | 294 | 3.0 | 6.0 | 0.00 | 0.00 | 0.00 | 45 | 1020.3 |
| 20260902162246 | 75 | 309 | 3.0 | 6.0 | 0.00 | 0.00 | 0.00 | 45 | 1020.3 |
| 20260902161745 | 76 | 289 | 3.0 | 6.0 | 0.00 | 0.00 | 0.00 | 44 | 1020.2 |
| 20260902161245 | 76 | 280 | 4.0 | 7.0 | 0.00 | 0.00 | 0.00 | 43 | 1020.2 |
| 20260902160745 | 77 | 281 | 4.0 | 7.0 | 0.00 | 0.00 | 0.00 | 43 | 1020.2 |
| 20260902160243 | 77 | 339 | 4.0 | 9.0 | 0.00 | 0.00 | 0.00 | 42 | 1020.2 |
| 20260902155741 | 78 | 277 | 4.0 | 9.0 | 0.00 | 0.00 | 0.00 | 41 | 1020.2 |
| 20260902155242 | 78 | 308 | 4.0 | 8.0 | 0.00 | 0.00 | 0.00 | 41 | 1020.2 |
| 20260902154741 | 78 | 286 | 3.0 | 7.0 | 0.00 | 0.00 | 0.00 | 40 | 1020.2 |
| 20260902154241 | 78 | 255 | 2.0 | 7.0 | 0.00 | 0.00 | 0.00 | 41 | 1020.2 |
| 20260902153740 | 78 | 258 | 3.0 | 7.0 | 0.00 | 0.00 | 0.00 | 42 | 1020.2 |
| 20260902153232 | 77 | 237 | 4.0 | 9.0 | 0.00 | 0.00 | 0.00 | 42 | 1020.3 |
| 20260902152733 | 77 | 274 | 5.0 | 9.0 | 0.00 | 0.00 | 0.00 | 42 | 1020.3 |
| 20260902152232 | 76 | 276 | 4.0 | 8.0 | 0.00 | 0.00 | 0.00 | 43 | 1020.3 |
| 20260902151730 | 76 | 330 | 4.0 | 8.0 | 0.00 | 0.00 | 0.00 | 42 | 1020.3 |
| 20260902151231 | 76 | 318 | 4.0 | 8.0 | 0.00 | 0.00 | 0.00 | 44 | 1020.4 |
| 20260902150730 | 75 | 5 | 5.0 | 9.0 | 0.00 | 0.00 | 0.00 | 44 | 1020.3 |
| 20260902150231 | 75 | 24 | 6.0 | 9.0 | 0.00 | 0.00 | 0.00 | 44 | 1020.3 |
| 20260902145731 | 75 | 317 | 5.0 | 9.0 | 0.00 | 0.00 | 0.00 | 44 | 1020.4 |
| 20260902145231 | 76 | 344 | 5.0 | 12.0 | 0.00 | 0.00 | 0.00 | 44 | 1020.4 |
| 20260902144733 | 76 | 323 | 4.0 | 12.0 | 0.00 | 0.00 | 0.00 | 43 | 1020.4 |
| 20260902144231 | 76 | 336 | 3.0 | 5.0 | 0.00 | 0.00 | 0.00 | 42 | 1020.5 |
| 20260902143732 | 76 | 347 | 3.0 | 6.0 | 0.00 | 0.00 | 0.00 | 42 | 1020.4 |
| 20260902143233 | 76 | 355 | 3.0 | 6.0 | 0.00 | 0.00 | 0.00 | 42 | 1020.5 |
| 20260902142730 | 77 | 351 | 3.0 | 6.0 | 0.00 | 0.00 | 0.00 | 42 | 1020.6 |
| 20260902142230 | 77 | 285 | 5.0 | 10.0 | 0.00 | 0.00 | 0.00 | 42 | 1020.5 |
| 20260902141732 | 77 | 302 | 4.0 | 10.0 | 0.00 | 0.00 | 0.00 | 42 | 1020.5 |
| 20260902141225 | 77 | 325 | 3.0 | 8.0 | 0.00 | 0.00 | 0.00 | 42 | 1020.5 |
| 20260902140723 | 77 | 326 | 4.0 | 6.0 | 0.00 | 0.00 | 0.00 | 42 | 1020.5 |
| 20260902140214 | 77 | 330 | 5.0 | 10.0 | 0.00 | 0.00 | 0.00 | 41 | 1020.6 |
| 20260902135716 | 77 | 333 | 5.0 | 10.0 | 0.00 | 0.00 | 0.00 | 41 | 1020.7 |
| 20260902135211 | 78 | 271 | 3.0 | 9.0 | 0.00 | 0.00 | 0.00 | 41 | 1020.7 |
| 20260902134710 | 78 | 262 | 3.0 | 8.0 | 0.00 | 0.00 | 0.00 | 40 | 1020.7 |
| 20260902134211 | 78 | 315 | 3.0 | 8.0 | 0.00 | 0.00 | 0.00 | 40 | 1020.7 |
| 20260902133708 | 78 | 280 | 3.0 | 7.0 | 0.00 | 0.00 | 0.00 | 42 | 1020.6 |
| 20260902133214 | 77 | 148 | 3.0 | 7.0 | 0.00 | 0.00 | 0.00 | 41 | 1020.7 |
| 20260902132708 | 77 | 140 | 2.0 | 6.0 | 0.00 | 0.00 | 0.00 | 42 | 1020.7 |
| 20260902132209 | 77 | 250 | 3.0 | 7.0 | 0.00 | 0.00 | 0.00 | 41 | 1020.8 |
| 20260902131712 | 76 | 255 | 4.0 | 8.0 | 0.00 | 0.00 | 0.00 | 43 | 1020.9 |
| 20260902131207 | 76 | 281 | 3.0 | 8.0 | 0.00 | 0.00 | 0.00 | 43 | 1021.0 |
| 20260902130707 | 76 | 277 | 3.0 | 7.0 | 0.00 | 0.00 | 0.00 | 42 | 1021.0 |
| 20260902130208 | 76 | 351 | 5.0 | 11.0 | 0.00 | 0.00 | 0.00 | 43 | 1021.0 |
| 20260902125706 | 76 | 330 | 4.0 | 11.0 | 0.00 | 0.00 | 0.00 | 42 | 1021.1 |
| 20260902125204 | 76 | 348 | 4.0 | 9.0 | 0.00 | 0.00 | 0.00 | 41 | 1021.1 |
| 20260902124705 | 76 | 355 | 5.0 | 9.0 | 0.00 | 0.00 | 0.00 | 41 | 1021.1 |
| 20260902124206 | 76 | 294 | 4.0 | 8.0 | 0.00 | 0.00 | 0.00 | 41 | 1021.2 |
| 20260902123703 | 76 | 317 | 5.0 | 9.0 | 0.00 | 0.00 | 0.00 | 41 | 1021.2 |
| 20260902123202 | 76 | 26 | 5.0 | 9.0 | 0.00 | 0.00 | 0.00 | 41 | 1021.2 |
| 20260902122702 | 76 | 345 | 5.0 | 9.0 | 0.00 | 0.00 | 0.00 | 43 | 1021.3 |
| 20260902122202 | 77 | 339 | 4.0 | 9.0 | 0.00 | 0.00 | 0.00 | 42 | 1021.3 |